Date,TemperatureHighF,TemperatureAvgF,TemperatureLowF,DewpointHighF,DewpointAvgF,DewpointLowF,HumidityHigh,HumidityAvg,HumidityLow,PressureMaxIn,PressureMinIn,WindSpeedMaxMPH,WindSpeedAvgMPH,GustSpeedMaxMPH,PrecipitationSumIn
2013-7-31,79.4,79.3,79.1,59.7,59.1,58.6,51,50,49,30.05,30.05,3,3,4,0.00
2013-8-3,78.8,76.1,71.5,67.7,65.2,62.2,82,69,57,29.84,29.78,15,10,16,0.01
2013-8-4,78.4,73.2,67.2,65.4,58.2,51.9,80,60,44,29.91,29.79,13,6,18,0.00
2013-8-5,77.8,70.1,63.5,60.3,51.9,43.6,73,54,36,30.00,29.91,11,5,14,0.00
2013-8-6,78.7,70.9,63.5,65.8,60.6,54.7,86,71,44,30.08,29.98,9,4,13,0.00
2013-8-7,78.3,73.0,69.3,68.6,64.4,61.1,87,75,63,30.10,30.02,8,4,13,0.00
2013-8-8,81.6,74.8,70.5,74.2,70.9,67.7,93,88,76,30.03,29.95,8,4,13,0.15
2013-8-9,84.6,77.3,74.0,75.5,73.4,71.5,95,88,69,29.97,29.74,21,7,21,0.11
2013-8-10,79.0,79.0,79.0,62.5,62.5,62.5,57,57,57,29.92,29.92,6,6,6,0.00
2013-8-11,79.7,76.1,73.0,67.2,61.1,53.3,82,61,44,30.02,29.98,8,4,11,0.00
2013-8-12,78.4,73.4,71.1,69.9,67.9,63.0,94,84,65,29.99,29.88,7,3,8,0.01
2013-8-13,75.3,72.3,69.0,72.5,68.8,65.7,96,89,74,29.89,29.65,11,2,11,0.72
2013-8-14,73.2,69.7,64.7,67.6,55.6,47.2,92,62,50,29.99,29.69,17,10,25,0.00
2013-8-15,76.0,69.1,60.5,60.9,52.8,45.4,80,58,38,30.09,29.99,9,4,13,0.00
2013-8-16,78.8,71.9,63.2,61.4,57.3,48.9,85,62,37,30.15,30.07,9,3,10,0.00
2013-8-17,78.9,72.0,63.4,63.6,59.8,54.9,86,66,44,30.23,30.15,8,3,10,0.00
2013-8-18,72.6,70.1,68.3,67.9,64.2,61.1,87,82,70,30.21,30.15,7,3,9,0.00
2013-8-19,79.5,78.3,76.3,64.8,62.6,59.4,63,59,55,30.03,29.97,9,5,11,0.00
2013-8-20,83.1,80.2,76.9,68.4,66.0,63.2,75,63,53,30.07,30.02,6,3,13,0.00
2013-8-21,87.3,85.9,83.9,65.6,63.2,59.0,54,47,40,30.07,30.02,7,4,11,0.00
2013-8-23,78.8,76.2,70.8,59.0,57.3,55.0,61,52,47,30.05,29.92,13,7,18,0.00
2013-8-24,76.5,70.1,64.0,62.0,56.0,52.0,78,62,48,30.30,30.05,16,7,20,0.00
2013-8-25,81.1,72.6,63.4,63.0,58.3,51.0,95,64,36,30.34,30.18,14,4,16,0.00
2013-8-26,81.3,75.5,70.5,71.0,63.1,57.0,89,66,58,30.18,29.86,19,10,22,0.05
2013-8-27,83.8,77.4,72.9,71.0,69.0,67.0,90,76,57,29.86,29.76,16,7,20,0.00
2013-8-28,78.1,74.6,71.1,73.0,71.1,69.0,94,89,79,29.85,29.80,9,3,11,0.02
2013-8-29,76.4,73.1,70.5,72.0,68.2,66.0,94,85,73,29.98,29.83,15,4,18,0.00
2013-8-30,83.6,75.6,68.8,73.0,68.0,65.0,89,78,57,29.98,29.80,15,7,19,0.05
2013-8-31,83.2,77.9,74.3,74.0,72.2,70.0,88,82,73,29.82,29.74,18,9,23,0.00
2013-9-1,83.3,77.8,74.4,75.0,73.2,72.0,93,86,71,29.81,29.75,9,4,12,0.00
2013-9-2,81.4,76.5,74.6,75.0,73.7,70.0,96,91,81,29.76,29.66,8,2,9,0.04
2013-9-3,80.0,75.0,70.5,73.0,66.3,57.0,97,77,50,29.84,29.66,13,5,18,0.11
2013-9-4,80.1,73.1,66.3,63.0,58.9,53.0,80,62,44,29.95,29.83,15,8,21,0.00
2013-9-5,75.4,72.1,63.5,62.0,55.0,44.0,72,56,34,30.10,29.87,12,7,19,0.00
2013-9-6,70.3,63.2,55.3,52.0,46.2,42.0,73,55,37,30.21,30.08,14,5,15,0.00
2013-9-7,77.3,69.2,62.5,60.0,52.8,46.0,70,57,36,30.07,29.85,13,6,13,0.00
2013-9-8,79.5,72.8,64.5,65.0,56.5,45.0,71,58,33,30.03,29.77,16,8,21,0.00
2013-9-9,70.3,64.9,57.6,62.0,52.3,46.0,78,65,48,30.20,30.03,14,6,19,0.00
2013-9-10,82.0,75.0,69.3,73.0,68.8,62.0,87,81,73,30.11,30.00,19,8,20,0.00
2013-9-11,90.3,81.8,75.7,77.0,73.8,73.0,90,77,63,30.06,29.93,11,5,16,0.00
2013-9-12,82.6,76.4,70.1,74.0,71.5,68.0,95,85,73,29.94,29.63,14,4,30,0.98
2013-9-13,74.8,69.4,60.7,69.0,61.5,52.0,91,77,58,29.79,29.58,16,7,19,0.05
2013-9-14,65.7,60.4,55.4,52.0,49.3,47.0,78,67,55,30.07,29.79,16,7,17,0.00
2013-9-15,72.4,62.6,54.1,59.0,49.5,43.0,80,64,36,30.17,30.03,12,4,15,0.00
2013-9-16,70.6,65.5,59.2,59.0,55.6,48.0,85,71,51,30.19,29.98,13,6,23,0.01
2013-9-17,63.5,56.7,49.5,49.0,42.4,38.0,71,60,48,30.39,30.20,19,7,27,0.00
2013-9-18,70.7,62.1,54.7,56.0,48.3,42.0,78,62,39,30.30,30.14,11,4,16,0.00
2013-9-19,75.5,65.7,58.5,60.0,53.0,47.0,82,65,41,30.14,30.02,11,4,13,0.00
2013-9-20,76.3,68.5,62.8,62.0,58.9,56.0,86,73,53,30.04,29.96,8,4,14,0.00
2013-9-21,74.4,68.6,62.0,69.0,64.4,59.0,93,86,77,29.97,29.62,16,5,21,0.15
2013-9-22,69.9,63.8,56.4,68.0,53.4,44.0,94,71,51,29.86,29.60,18,9,26,0.93
2013-9-23,65.2,57.8,51.1,48.0,44.3,41.0,77,62,47,30.00,29.86,13,6,18,0.00
2013-9-24,72.1,59.6,49.3,50.0,46.0,43.0,84,63,40,30.01,29.82,11,5,15,0.00
2013-9-25,71.1,62.5,53.9,57.0,48.2,45.0,87,61,42,29.91,29.82,11,3,16,0.00
2013-9-26,67.2,62.2,58.9,58.0,55.9,53.0,88,80,68,30.05,29.89,12,4,19,0.00
2013-9-27,64.7,60.8,55.4,56.0,53.6,51.0,91,78,66,30.22,30.05,10,4,15,0.00
2013-9-28,71.5,64.0,55.1,56.0,54.5,52.0,89,72,52,30.27,30.19,10,4,13,0.00
2013-9-29,68.6,62.5,58.1,59.0,56.3,52.0,93,81,57,30.19,30.04,12,3,14,0.00
2013-9-30,71.2,63.0,55.4,59.0,55.0,52.0,94,76,52,30.04,29.92,9,3,10,0.00
2013-10-1,80.6,69.8,58.7,62.0,57.3,52.0,84,66,44,29.95,29.84,9,2,11,0.00
2013-10-2,83.0,73.1,63.0,64.0,60.9,57.0,88,67,49,29.96,29.85,11,4,17,0.00
2013-10-3,76.8,69.6,61.5,63.0,58.6,53.0,93,69,46,30.07,29.96,5,2,9,0.00
2013-10-4,81.9,71.5,64.7,68.0,64.4,59.0,94,79,59,30.01,29.91,11,3,17,0.01
2013-10-5,71.3,67.0,64.3,66.0,63.5,62.0,92,88,80,30.05,29.97,12,5,17,0.00
2013-10-6,69.0,66.4,64.9,67.0,65.1,64.0,96,95,92,30.06,29.99,8,3,13,0.00
2013-10-7,74.8,69.4,62.7,70.0,65.6,54.0,94,87,73,29.99,29.73,26,7,36,0.13
2013-10-8,65.9,61.1,55.5,53.0,47.3,44.0,78,61,46,30.27,29.93,13,7,22,0.00
2013-10-9,62.1,59.1,54.6,52.0,49.4,44.0,80,70,62,30.35,30.24,19,10,26,0.00
2013-10-10,64.7,59.6,54.7,58.0,53.9,49.0,86,81,74,30.24,30.03,21,13,26,0.00
2013-10-11,68.0,64.6,61.3,63.0,58.7,51.0,87,81,58,30.04,29.96,19,12,24,0.00
2013-10-12,70.7,64.6,61.3,58.0,52.0,44.0,81,64,40,30.24,30.03,21,12,31,0.00
2013-10-13,62.4,59.3,56.5,56.0,52.9,50.0,86,79,69,30.34,30.23,24,11,30,0.00
2013-10-14,64.5,57.7,54.2,53.0,50.4,48.0,88,77,61,30.32,30.20,7,3,10,0.00
2013-10-15,66.5,59.1,53.4,58.0,53.9,49.0,95,83,65,30.21,30.07,9,3,14,0.00
2013-10-16,63.0,60.0,55.6,60.0,55.6,52.0,93,85,77,30.07,29.87,8,4,12,0.00
2013-10-17,72.2,65.3,61.7,63.0,61.6,59.0,94,88,70,29.87,29.65,11,5,15,0.01
2013-10-18,67.7,63.5,59.1,64.0,49.6,44.0,92,62,44,29.93,29.62,20,10,25,0.01
2013-10-19,63.6,58.9,51.7,57.0,49.4,44.0,86,71,55,29.94,29.69,14,4,18,0.00
2013-10-20,62.5,57.7,52.3,57.0,42.9,36.0,85,59,38,30.01,29.70,18,8,21,0.00
2013-10-21,65.6,59.3,51.7,51.0,43.1,37.0,72,56,37,30.10,29.94,16,7,23,0.00
2013-10-22,65.1,60.0,53.1,52.0,49.1,42.0,81,68,54,29.93,29.70,17,9,21,0.00
2013-10-23,53.9,50.5,47.6,44.0,39.5,36.0,80,67,52,29.77,29.57,14,6,20,0.00
2013-10-24,53.5,48.2,43.1,39.0,33.7,28.0,78,59,40,29.95,29.70,22,11,26,0.00
2013-10-25,53.0,47.7,42.7,36.0,33.4,31.0,73,58,44,30.17,29.95,19,9,23,0.00
2013-10-26,55.4,50.4,44.5,41.0,35.5,31.0,71,57,44,30.16,29.84,26,14,33,0.00
2013-10-27,57.2,53.0,49.6,37.0,34.8,33.0,59,51,40,30.07,29.80,16,9,25,0.00
2013-10-28,60.6,53.1,45.0,41.0,36.3,33.0,72,54,40,30.27,30.07,16,6,22,0.00
2013-10-29,53.2,48.5,44.0,39.0,34.9,31.0,72,60,50,30.38,30.27,12,5,15,0.00
2013-10-30,59.0,52.5,46.0,53.0,45.6,37.0,93,77,68,30.30,30.13,11,2,13,0.00
2013-10-31,63.6,58.8,51.0,60.0,56.0,49.0,95,90,83,30.18,29.77,17,4,20,0.04
2013-11-1,69.0,64.8,60.6,63.0,58.6,54.0,94,81,59,29.75,29.50,23,11,49,0.06
2013-11-2,66.4,59.5,54.0,59.0,49.4,41.0,89,71,49,29.73,29.57,14,3,20,0.00
2013-11-3,56.6,46.6,38.1,44.0,35.4,22.0,81,65,52,30.40,29.73,19,9,23,0.00
2013-11-4,44.7,39.8,34.1,29.0,22.1,20.0,61,50,38,30.61,30.41,16,6,22,0.00
2013-11-5,53.6,48.6,42.9,44.0,38.1,28.0,82,67,53,30.61,30.44,8,2,13,0.00
2013-11-6,59.7,54.3,46.6,55.0,48.3,44.0,94,81,62,30.44,30.02,13,4,17,0.00
2013-11-7,63.4,55.7,45.2,59.0,49.7,32.0,93,81,56,30.02,29.69,22,9,24,0.09
2013-11-8,48.5,45.4,42.5,35.0,30.8,27.0,72,58,45,30.13,29.87,23,11,30,0.00
2013-11-11,53.4,49.8,44.5,38.0,32.3,28.0,58,52,46,30.15,29.91,26,13,30,0.00
2013-11-12,52.5,39.6,32.6,38.0,26.7,18.0,93,61,46,30.23,29.88,22,11,28,0.03
2013-11-13,39.3,34.7,29.7,24.0,18.2,12.0,68,52,34,30.32,30.23,16,9,22,0.00
2013-11-14,52.3,44.3,35.7,30.0,23.4,18.0,63,46,26,30.22,30.10,23,14,26,0.00
2013-11-15,55.5,49.5,42.8,44.0,35.2,28.0,83,59,37,30.20,30.11,11,5,14,0.00
2013-11-16,57.7,51.0,45.3,48.0,42.5,30.0,95,74,44,30.28,30.17,9,2,11,0.04
2013-11-17,59.3,53.8,47.7,59.0,52.9,46.0,98,96,94,30.23,29.75,10,4,11,0.02
2013-11-18,63.8,59.5,52.0,59.0,42.9,29.0,98,59,32,29.75,29.55,23,12,30,0.20
2013-11-19,51.5,44.1,36.3,32.0,27.6,24.0,64,53,44,30.30,29.73,28,13,35,0.00
2013-11-20,43.7,37.4,32.1,25.0,20.2,16.0,66,51,34,30.56,30.30,13,5,20,0.00
2013-11-21,49.5,43.1,33.7,44.0,33.2,18.0,84,69,53,30.57,30.34,13,4,16,0.00
2013-11-22,56.2,53.1,48.6,50.0,47.9,43.0,93,82,74,30.33,29.84,17,7,21,0.10
2013-11-23,54.6,42.7,31.9,50.0,27.3,9.0,84,56,38,29.97,29.84,32,14,41,0.00
2013-11-24,31.2,27.0,24.3,13.0,8.9,2.0,57,47,31,30.32,29.95,35,19,46,0.00
2013-11-25,35.9,30.1,23.7,21.0,15.1,11.0,65,54,42,30.43,30.29,23,11,28,0.00
2013-11-26,46.7,38.4,35.3,46.0,27.7,19.0,96,68,46,30.29,29.76,16,6,19,0.46
2013-11-27,60.4,48.0,36.0,60.0,44.6,23.0,98,88,59,29.73,29.29,27,13,39,1.45
2013-11-28,35.8,32.7,30.5,22.0,15.8,11.0,66,51,39,30.42,29.68,25,12,39,0.00
2013-11-29,37.5,34.2,30.7,22.0,19.5,15.0,63,55,46,30.68,30.42,11,5,19,0.00
2013-11-30,38.8,32.1,25.5,32.0,21.2,14.0,76,65,51,30.71,30.33,14,4,17,0.00
2013-12-1,49.8,42.0,36.8,39.0,34.8,31.0,88,76,56,30.32,29.96,6,1,9,0.00
2013-12-2,43.8,42.0,39.0,41.0,38.3,35.0,93,87,74,29.96,29.84,8,2,10,0.00
2013-12-3,53.1,42.8,36.1,40.0,36.9,35.0,94,81,55,29.96,29.82,4,1,6,0.00
2013-12-4,46.3,42.8,38.0,44.0,37.9,34.0,93,83,71,30.09,29.96,8,3,10,0.00
2013-12-5,54.9,49.9,46.3,54.0,48.8,44.0,98,96,92,30.08,29.89,10,4,11,0.02
2013-12-6,55.1,46.6,36.5,55.0,44.8,34.0,99,93,87,30.10,29.82,14,6,21,0.58
2013-12-7,40.2,37.2,32.8,35.0,28.5,19.0,93,72,54,30.46,30.05,17,8,20,0.10
2013-12-8,33.1,31.3,29.3,31.0,22.2,17.0,93,70,57,30.55,30.34,12,5,16,0.00
2013-12-9,39.2,36.4,31.6,38.0,35.1,30.0,97,94,86,30.32,29.91,23,10,29,0.05
2013-12-10,38.6,35.1,31.9,35.0,30.2,18.0,96,82,57,30.07,29.82,17,9,24,0.09
2013-12-11,33.8,31.2,28.2,22.0,18.2,16.0,66,59,49,30.27,30.09,22,15,28,0.00
2013-12-12,30.2,26.3,23.5,19.0,10.6,5.0,66,52,42,30.31,30.11,21,11,28,0.00
2013-12-13,35.3,30.6,24.9,20.0,14.9,8.0,58,52,48,30.28,30.07,26,13,36,0.00
2013-12-14,35.1,27.1,23.9,34.0,23.3,18.0,97,86,52,30.46,29.75,25,13,32,0.02
2013-12-15,38.0,35.0,30.2,37.0,31.0,23.0,98,86,64,29.79,29.44,35,12,35,0.15
2013-12-16,34.3,29.4,26.3,25.0,14.1,9.0,69,53,43,30.19,29.78,22,10,27,0.00
2013-12-17,31.4,26.5,23.7,30.0,21.0,12.0,95,81,56,30.19,29.89,15,5,22,0.00
2013-12-18,37.9,30.9,23.4,25.0,22.0,19.0,86,71,53,30.11,29.88,19,9,22,0.00
2013-12-19,44.5,38.6,32.1,34.0,28.3,22.0,76,67,56,30.13,29.98,19,8,24,0.00
2013-12-20,50.3,44.5,37.2,45.0,35.8,32.0,88,72,59,30.05,29.92,13,5,17,0.00
2013-12-21,58.2,52.3,48.0,51.0,47.8,44.0,92,84,73,29.96,29.85,17,6,19,0.00
2013-12-22,65.1,56.9,49.3,59.0,53.8,47.0,97,89,76,29.91,29.77,13,6,19,0.00
2013-12-23,59.1,52.8,42.1,57.0,50.7,33.0,98,92,70,30.09,29.83,17,4,24,0.50
2013-12-24,41.9,35.7,27.3,32.0,24.4,9.0,89,64,45,30.29,30.04,30,10,35,0.00
2013-12-25,29.3,24.7,19.6,19.0,10.7,8.0,66,56,46,30.48,30.29,18,6,32,0.00
2013-12-26,36.4,33.1,29.2,28.0,25.0,19.0,80,72,57,30.38,30.11,16,5,21,0.00
2013-12-27,40.3,36.5,32.7,29.0,23.6,18.0,70,60,47,30.31,30.21,17,8,20,0.00
2013-12-28,53.8,44.7,36.4,35.0,30.0,26.0,73,58,38,30.23,30.01,24,10,29,0.00
2013-12-29,47.3,43.1,39.9,43.0,36.1,30.0,97,78,52,30.01,29.36,16,6,27,1.08
2013-12-30,44.5,36.8,23.7,39.0,27.7,11.0,86,70,49,30.15,29.63,18,9,28,0.00
2013-12-31,33.1,27.0,21.1,25.0,15.0,10.0,74,61,50,30.23,30.02,25,9,27,0.00
2014-1-1,33.1,29.5,25.4,24.0,17.2,9.0,71,60,50,30.36,30.21,16,7,22,0.00
2014-1-2,33.2,26.7,17.8,26.0,23.0,15.0,92,86,69,30.20,29.64,28,16,34,0.00